User: anonymous   Login
Location: Bushey
(51.6333°N, 0.3667°W)
Time: 16:03:59
(UTC+00:00)
Language:

Cosmos 2154 Rocket - Orbit

View from above orbital plane
View from above orbital plane
View from above satellite
View from above satellite

Ground track
Ground track

The orbit data is extracted from the following two-line orbital elements,

1 21667U 91059B   21135.79536927  .00000024  00000-0  91149-5 0  9991
2 21667  82.9093  25.2520 0019733 229.4306 196.7008 13.75105454491763
Epoch (UTC): 15 May 2021 19:05:19
Eccentricity: 0.0019733
inclination: 82.9093°
perigee height: 967 km
apogee height: 996 km
right ascension of ascending node: 25.2520°
argument of perigee: 229.4306°
revolutions per day: 13.75105454
mean anomaly at epoch: 196.7008°
orbit number at epoch: 49176

The dashed part of the orbit path shows where the satellite is in the earth's shadow,  

DLR